Location: Saluda
(35.2377°N, 82.3468°W)
Time: 13:51:34
(UTC+00:00)

SR - Pass Details

Date: 10 October 2022
Orbit: 577 x 875 km, 66.7° (Epoch: 28 November)

Event Time Altitude Azimuth Distance (km) Brightness Sun altitude
Rises 09:30:34 0° 336° (NNW) 3,262 - -25.4°
Reaches altitude 10° 09:33:06 10° 339° (NNW) 2,283 - -24.9°
Exits shadow 09:33:50 14° 341° (NNW) 2,001 ? -24.7°
Maximum altitude 09:38:15 64° 61° (ENE) 781 ? -23.8°
Drops below altitude 10° 09:42:56 10° 143° (SE) 2,075 ? -22.9°
Sets 09:45:08 0° 146° (SSE) 2,940 ? -22.5°
